[[{"header":{"parameterUnit":"m.s-1","parameterCategory":1,"la1":30.2991,"la2":30.254,"lo1":-89.0895,"lo2":-89.0444,"dy":0.0017,"dx":0.0017,"nx":28,"ny":28,"refTime":"2025-02-05T09:00:00:Z","depth":0,"parameterNumber":2,"parameterNumberName":"U-component_of_WINDS"},"data":[0,0,0,0,0,0,0,0,0,0,0,0,0,0,0,0,0,0,0,0,0,0,0,0,0,0,0,0,0,0,0,0,0,0,0,0,0,0,0,0,0,0,0,0,0,0,0,0,0,0,0,0,0,0,0,0,0,0,0.3944,0.3945,0,0.4006,0.4006,0.4007,0.4007,0.4006,0.4005,0.4004,0.4067,0.407,0.4072,0,0,0,0,0,0,0,0,0,0,0,0,0,0.3826,0.3828,0.3944,0.3945,0.3946,0.4006,0.4006,0.4007,0.4007,0.4006,0.4005,0.4004,0.4067,0.4069,0.4072,0,0,0,0,0,0,0,0,0,0,0,0,0,0.3881,0.3828,0.3944,0.3953,0.3954,0.4005,0.4006,0.4007,0.4007,0.4006,0.4004,0.4003,0.4066,0.4069,0.4073,0.412,0,0,0.4084,0.4085,0,0,0,0,0,0,0,0,0.3878,0.3885,0.3951,0.3952,0.3954,0.3997,0.3988,0.4045,0.4007,0.3987,0.4004,0.4003,0.4045,0.405,0.4064,0.4123,0.4125,0.4084,0.4086,0.4088,0.4089,0,0,0,0,0,0,0,0.3874,0.3883,0.3968,0.3951,0.3953,0.3953,0.396,0.3999,0.4022,0.3988,0.3989,0.3996,0.4046,0.4061,0.4066,0.4126,0.4084,0.4087,0.409,0.4091,0.4226,0.4227,0,0,0,0,0,0,0.3868,0.388,0.3966,0.397,0.3912,0.3956,0.3964,0.3984,0.4022,0.4026,0.3997,0.3996,0.4055,0.4062,0.4068,0.4125,0.4088,0.4091,0.4094,0.4224,0.4226,0.4227,0,0,0,0,0,0,0.3866,0.3876,0.3964,0.3925,0.3936,0.396,0.3983,0.3986,0.4002,0.4028,0.4032,0.4008,0.4055,0.4063,0.4107,0.4128,0.4093,0.4096,0.4223,0.4225,0.4227,0.424,0,0,0,0,0,0,0.3863,0.3875,0.3894,0.3925,0.3938,0.4002,0.3984,0.3988,0.4008,0.4007,0.404,0.4044,0.4054,0.4101,0.411,0.4132,0.4099,0.4221,0.4223,0.4226,0.4238,0.4242,0.4246,0,0,0,0,0,0.3858,0.3895,0.3894,0.3905,0.3961,0.4003,0.401,0.4021,0.401,0.4028,0.4045,0.4043,0.4124,0.4106,0.4116,0.4139,0.422,0.4223,0.4226,0.4236,0.4241,0.4246,0,0,0,0,0,0,0.3865,0.3899,0.3899,0.3947,0.3972,0.4003,0.4026,0.4027,0.4056,0.4053,0.4066,0.4073,0.4117,0.4132,0.4112,0.4186,0.417,0.4175,0.4175,0.418,0.4184,0.4179,0.4102,0,0,0,0,0,0.3872,0.3903,0.3931,0.3971,0.3983,0.4003,0.4021,0.4028,0.4054,0.4064,0.4084,0.411,0.4141,0.4161,0.4191,0.424,0.4247,0.4261,0.4265,0.4268,0.4273,0.4299,0.4305,0.4238,0.4237,0.4237,0,0,0.3887,0.3909,0.3928,0.3973,0.3993,0.4024,0.4012,0.4046,0.4069,0.407,0.4112,0.4128,0.4157,0.4203,0.4225,0.4217,0.4293,0.4272,0.4275,0.4277,0.4303,0.4309,0.4315,0.424,0.4239,0.4239,0,0,0.393,0.395,0.3986,0.4006,0.4036,0.4049,0.4057,0.4088,0.4098,0.4141,0.4142,0.417,0.4223,0.4244,0.4262,0.4312,0.4312,0.4322,0.4343,0.4369,0.4374,0.4379,0.4397,0.4403,0.4326,0.4326,0.4326,0,0.3945,0.3992,0.4004,0.4038,0.4057,0.4059,0.4094,0.4114,0.4152,0.4166,0.4157,0.4224,0.4244,0.4295,0.4307,0.4321,0.4331,0.4318,0.4373,0.4378,0.4382,0.4399,0.4406,0.4327,0.4327,0.4327,0.4327,0,0.4009,0.4042,0.4067,0.4104,0.4126,0.4161,0.4177,0.4198,0.4202,0.4216,0.4259,0.4283,0.4318,0.433,0.4335,0.4382,0.4376,0.437,0.4354,0.439,0.4406,0.4413,0.4329,0.4328,0.4328,0.4328,0,0,0.4058,0.4101,0.411,0.4127,0.416,0.4186,0.422,0.4254,0.4272,0.4299,0.4328,0.4373,0.4367,0.4387,0.4394,0.4416,0.4455,0.4407,0.4408,0.4415,0.4508,0.4512,0.4519,0.4454,0.4456,0.4457,0.4505,0,0.4105,0.4166,0.4177,0.4231,0.4261,0.4263,0.4293,0.4317,0.433,0.4358,0.4373,0.4404,0.4395,0.4406,0.4429,0.4445,0.4473,0.4442,0.4481,0.4483,0.4474,0.4528,0.4533,0.4577,0.4511,0.4513,0.4513,0,0.4167,0.4196,0.4252,0.4282,0.4295,0.4322,0.4353,0.438,0.4407,0.4415,0.4437,0.4441,0.4477,0.4459,0.4508,0.4487,0.4503,0.4514,0.4516,0.452,0.45,0.4533,0.4592,0.4598,0.4524,0.4523,0.4522,0,0.4197,0.4249,0.429,0.4304,0.434,0.4358,0.4374,0.44,0.4419,0.4447,0.446,0.4491,0.4509,0.4533,0.4545,0.4531,0.4593,0.4577,0.4601,0.4601,0.4614,0.4613,0.4676,0.4625,0.4625,0.4625,0.4625,0,0.4248,0.4283,0.4304,0.4329,0.4368,0.438,0.4417,0.4433,0.4455,0.4483,0.4487,0.4513,0.4528,0.4556,0.4566,0.4605,0.4612,0.462,0.4622,0.462,0.4619,0.4631,0.4628,0.4626,0.4626,0.4626,0.4625,0,0.4288,0.4304,0.4348,0.4378,0.4386,0.4413,0.4438,0.4463,0.4476,0.4511,0.452,0.454,0.4573,0.4588,0.4629,0.4636,0.468,0.4681,0.4671,0.4672,0.4695,0.4693,0.4768,0.4778,0.472,0.4721,0.4721,0,0.4319,0.4346,0.4379,0.4398,0.4414,0.4444,0.4464,0.4477,0.4497,0.453,0.455,0.4583,0.461,0.4663,0.4682,0.4713,0.4714,0.4738,0.4719,0.4715,0.4714,0.4712,0.4715,0.4741,0.4742,0.4742,0.4743,0,0.4373,0.438,0.4408,0.444,0.4464,0.4489,0.4514,0.4529,0.4546,0.4569,0.4603,0.4624,0.4666,0.4698,0.4731,0.4747,0.4747,0.4749,0.4756,0.4754,0.4747,0.4751,0.4681,0.4747,0.4747,0.4746,0.4746,0.4746,0.441,0.4433,0.446,0.4492,0.4512,0.4535,0.4559,0.4575,0.4604,0.4639,0.4645,0.4681,0.4706,0.475,0.4767,0.4795,0.4789,0.48,0.4802,0.4805,0.4806,0.4743,0.4801,0.4801,0.4801,0.4801,0.4801,0,0.4463,0.4481,0.451,0.4545,0.457,0.4568,0.4596,0.4617,0.4648,0.4673,0.4699,0.4738,0.477,0.4791,0.4823,0.4841,0.4843,0.4849,0.4848,0.4852,0.4809,0.48,0.4848,0.4848,0.4848,0.4848,0.4848,0.4848,0.4494,0.4534,0.4544,0.4593,0.461,0.4646,0.4662,0.4683,0.4702,0.4745,0.4772,0.4785,0.4808,0.4842,0.4871,0.4876,0.4888,0.4895,0.49,0.486,0.4855,0.485,0.4841,0.4897,0.4897,0.4939,0.494,0.494]},{"header":{"parameterUnit":"m.s-1","parameterCategory":1,"la1":30.2991,"la2":30.254,"lo1":-89.0895,"lo2":-89.0444,"dy":0.0017,"dx":0.0017,"nx":28,"ny":28,"refTime":"2025-02-05T09:00:00:Z","depth":0,"parameterNumber":3,"parameterNumberName":"V-component_of_WINDS"},"data":[0,0,0,0,0,0,0,0,0,0,0,0,0,0,0,0,0,0,0,0,0,0,0,0,0,0,0,0,0,0,0,0,0,0,0,0,0,0,0,0,0,0,0,0,0,0,0,0,0,0,0,0,0,0,0,0,0,0,1.1811,1.1811,0,1.1774,1.1773,1.1773,1.173,1.173,1.1729,1.1728,1.1689,1.1688,1.1688,0,0,0,0,0,0,0,0,0,0,0,0,0,1.1844,1.1843,1.1811,1.1811,1.181,1.1774,1.1773,1.1773,1.173,1.173,1.1729,1.1728,1.1689,1.1688,1.1688,0,0,0,0,0,0,0,0,0,0,0,0,0,1.182,1.1843,1.1811,1.1785,1.1782,1.1774,1.1773,1.1773,1.1731,1.173,1.1729,1.1728,1.1689,1.1688,1.1688,1.1702,0,0,1.1685,1.1685,0,0,0,0,0,0,0,0,1.1822,1.1819,1.1789,1.1787,1.1784,1.1756,1.177,1.1749,1.1731,1.175,1.1728,1.1727,1.1712,1.1709,1.1704,1.17,1.1698,1.1685,1.1685,1.1685,1.1684,0,0,0,0,0,0,0,1.1823,1.182,1.1796,1.1789,1.1785,1.1774,1.177,1.1766,1.1737,1.1748,1.1745,1.1741,1.171,1.1705,1.1703,1.1698,1.1685,1.1685,1.1684,1.1684,1.1701,1.1702,0,0,0,0,0,0,1.1829,1.1822,1.1798,1.1795,1.1801,1.1774,1.1769,1.1766,1.1737,1.1731,1.1742,1.174,1.1706,1.1704,1.1701,1.1715,1.1685,1.1684,1.1684,1.17,1.1701,1.1702,0,0,0,0,0,0,1.183,1.1827,1.1799,1.1808,1.1803,1.1775,1.1771,1.1765,1.176,1.1732,1.1726,1.1743,1.1706,1.1702,1.1702,1.1713,1.1684,1.1683,1.1699,1.1701,1.1702,1.1743,0,0,0,0,0,0,1.1831,1.1828,1.1834,1.1808,1.1803,1.1801,1.1772,1.1765,1.1759,1.1755,1.1731,1.1726,1.1705,1.1703,1.1701,1.1711,1.1682,1.1698,1.17,1.1702,1.1741,1.1746,1.175,0,0,0,0,0,1.1832,1.1847,1.1835,1.1832,1.181,1.1802,1.1799,1.1775,1.176,1.1766,1.1747,1.1726,1.1712,1.1703,1.1701,1.1711,1.1697,1.1699,1.1701,1.1739,1.1745,1.175,0,0,0,0,0,0,1.1875,1.1844,1.1829,1.1836,1.1822,1.1795,1.1801,1.1783,1.1772,1.1769,1.1739,1.1733,1.1736,1.1723,1.1714,1.1722,1.1701,1.1703,1.1731,1.1736,1.1741,1.1744,1.1682,0,0,0,0,0,1.1885,1.1882,1.1854,1.1863,1.1857,1.183,1.1826,1.1808,1.1792,1.1786,1.1768,1.1752,1.1744,1.1739,1.173,1.1738,1.1731,1.1744,1.1748,1.1752,1.1754,1.1755,1.176,1.1709,1.1709,1.1709,0,0,1.1907,1.1889,1.1889,1.1871,1.1859,1.1855,1.1826,1.1824,1.182,1.1786,1.1784,1.177,1.175,1.1754,1.1754,1.1743,1.1767,1.1755,1.1758,1.1758,1.1758,1.1763,1.1767,1.171,1.171,1.171,0,0,1.1943,1.193,1.1935,1.1923,1.1903,1.1885,1.1886,1.1862,1.1851,1.1849,1.1822,1.1817,1.1804,1.1791,1.1782,1.1811,1.1792,1.1809,1.1834,1.1835,1.1839,1.1843,1.1852,1.1856,1.1811,1.1811,1.1811,0,1.1972,1.1967,1.194,1.194,1.1932,1.19,1.1904,1.1893,1.1872,1.1867,1.1855,1.1836,1.1821,1.182,1.1827,1.1821,1.1821,1.1812,1.1841,1.1844,1.1847,1.1856,1.1859,1.1813,1.1813,1.1813,1.1813,0,1.2002,1.1999,1.2005,1.1985,1.1978,1.198,1.1953,1.1948,1.1931,1.1913,1.191,1.1891,1.1876,1.1875,1.1858,1.187,1.1864,1.1847,1.1826,1.1855,1.1862,1.1865,1.1817,1.1816,1.1815,1.1815,0,0,1.2066,1.2031,1.2033,1.2023,1.1999,1.1995,1.1994,1.198,1.1976,1.1962,1.196,1.1948,1.1932,1.1922,1.1903,1.1904,1.1927,1.1887,1.1886,1.1894,1.1938,1.1951,1.1955,1.1913,1.1914,1.1914,1.1939,0,1.2098,1.2096,1.2072,1.2076,1.2071,1.204,1.2039,1.2023,1.2006,1.1999,1.198,1.1972,1.1951,1.1945,1.1945,1.1924,1.1935,1.1922,1.191,1.191,1.1916,1.1959,1.1973,1.1998,1.1942,1.1943,1.1943,0,1.2136,1.2124,1.2128,1.2101,1.2098,1.2098,1.2082,1.2076,1.2057,1.2044,1.2032,1.201,1.2006,1.1986,1.1978,1.197,1.1963,1.1952,1.1952,1.195,1.1928,1.1958,1.2006,1.2009,1.1947,1.1947,1.1947,0,1.2181,1.2166,1.2166,1.2158,1.2128,1.2128,1.2115,1.2094,1.2087,1.2072,1.2067,1.2052,1.2044,1.2032,1.2006,1.1994,1.2001,1.1979,1.1989,1.199,1.1993,1.1993,1.204,1.1989,1.1989,1.1989,1.1988,0,1.222,1.2223,1.2185,1.2186,1.2188,1.2159,1.2161,1.2145,1.2127,1.2122,1.2093,1.2089,1.2055,1.2046,1.2025,1.2022,1.2018,1.2007,1.2001,1.2009,1.2011,1.2005,1.2002,1.1989,1.1989,1.1989,1.1989,0,1.2271,1.2246,1.2244,1.2215,1.2207,1.221,1.2185,1.2183,1.2163,1.2157,1.2154,1.2124,1.2112,1.2084,1.2065,1.205,1.2052,1.2042,1.2059,1.2055,1.2067,1.2066,1.2111,1.2115,1.2062,1.2063,1.2063,0,1.2297,1.2299,1.227,1.2265,1.2254,1.2246,1.2238,1.2208,1.2201,1.2177,1.2178,1.2164,1.2151,1.2133,1.2108,1.2092,1.2081,1.2098,1.2079,1.2086,1.2081,1.2081,1.208,1.2103,1.2103,1.2104,1.2104,0,1.2346,1.2333,1.2324,1.2309,1.23,1.2287,1.2272,1.2269,1.2236,1.2228,1.2216,1.2206,1.2186,1.2171,1.2151,1.2136,1.2114,1.211,1.2112,1.212,1.213,1.2124,1.207,1.211,1.2109,1.2109,1.2109,1.2108,1.2385,1.2385,1.2364,1.2354,1.2339,1.2326,1.2322,1.2302,1.2291,1.2273,1.2255,1.2244,1.2222,1.2193,1.2179,1.2169,1.2158,1.216,1.2161,1.2162,1.2165,1.2131,1.2165,1.2165,1.2165,1.2164,1.2164,0,1.2432,1.2417,1.2408,1.2388,1.2379,1.2359,1.2341,1.2334,1.2325,1.2307,1.2294,1.2279,1.2264,1.2237,1.222,1.2217,1.2206,1.2213,1.2213,1.2209,1.2176,1.2176,1.2222,1.2222,1.2222,1.2222,1.2222,1.2222,1.2456,1.2454,1.2438,1.2428,1.2412,1.2402,1.2393,1.2379,1.2364,1.2349,1.2337,1.2319,1.2297,1.2277,1.2262,1.2254,1.2248,1.2259,1.2248,1.2217,1.2212,1.2207,1.2207,1.2258,1.2258,1.2282,1.2282,1.2282]}]]